Location: Mentone
(34.5413°N, 85.5351°W)
Time: 14:46:16
(UTC-05:00)

Vanguard 2 Rocket - Visible Passes

Search period start: 28 July 2015 00:00
Search period end: 07 August 2015 00:00
Orbit: 556 x 3330 km, 32.9° (Epoch: 28 July)

Date Brightness Start Highest point End Pass type
(mag) Time Alt. Az. Time Alt. Az. Time Alt. Az.
28 Jul 10.0 00:06:06 10° WSW 00:07:47 13° WSW 00:07:47 13° WSW visible
28 Jul 8.2 20:51:42 10° W 20:58:00 47° SSW 21:05:56 18° SE visible
28 Jul 9.5 23:05:53 10° WSW 23:11:45 22° SW 23:11:45 22° SW visible
29 Jul 9.1 22:06:36 10° WSW 22:13:20 27° SSW 22:15:47 25° S visible
30 Jul 8.6 21:07:50 10° W 21:13:48 32° SSW 21:19:53 18° SSE visible
30 Jul 10.0 23:24:52 10° SW 23:25:43 11° SW 23:25:43 11° SW visible
31 Jul 8.1 20:09:21 10° W 20:14:36 38° SSW 20:23:05 10° SE visible
31 Jul 9.6 22:24:03 10° WSW 22:29:18 16° SSW 22:29:52 16° SSW visible
01 Aug 9.1 21:24:33 10° WSW 21:29:42 20° SSW 21:34:04 15° S visible
02 Aug 8.7 20:25:40 10° WSW 20:30:25 25° SSW 20:37:18 10° SSE visible
03 Aug 9.6 21:43:41 10° SW 21:45:42 11° SSW 21:47:31 10° SSW visible
04 Aug 9.2 20:43:02 10° SW 20:46:19 14° SSW 20:50:09 10° S visible
